Regional Weather Roundup
Issued by NWS

Home | Current Version | Previous Version | Text Only | Print | Product List | Glossary On
Versions: 1 2 3 4 5 6 7 8 9 10 11 12 13 14 15 16 17 18 19 20 21 22 23 24 25 26 27 28 29 30 31 32 33 34 35 36 37 38 39 40 41 42 43 44 45 46 47 48 49 50
000
ASUS44 KFWD 161110
RWRTX
NORTH TEXAS HOURLY WEATHER ROUNDUP
NATIONAL WEATHER SERVICE FORT WORTH TX
600 AM CDT WED AUG 16 2017

NOTE: "FAIR" INDICATES FEW OR NO CLOUDS BELOW 12,000 FEET WITH NO
SIGNIFICANT WEATHER AND/OR OBSTRUCTIONS TO VISIBILITY.

TXZ118-119-161200-
DALLAS/FORT WORTH METROPLEX

CITY           SKY/WX    TMP DP  RH WIND       PRES   REMARKS
DFW AIRPORT    CLOUDY    81  73  76 S14G25    29.86R
DALLAS LOVE    CLOUDY    81  72  74 S15       29.88R
FTW MEACHAM    LGT RAIN  81  74  79 S12       29.87R
DAL-EXECUTIVE  MOCLDY    79  74  84 VRB7      29.88R
FTW-ALLIANCE   LGT RAIN  80  73  79 S9        29.86S
FTW-NAS-JRB    CLOUDY    80  72  76 S16       29.87R
FTW-SPINKS     CLOUDY    79  72  78 S10       29.90R
ARLINGTON      CLOUDY    79  74  84 S12       29.88R
GRAND PRAIRIE  CLOUDY    79  71  74 S12       29.89S
ADDISON        CLEAR     81  72  74 S13G21    29.89S
MESQUITE       PTCLDY    76  73  89 S8        29.90R
LANCASTER      MOCLDY    78  73  83 S8        29.90R
$$

TXZ091>094-102>105-117-120-121-131>134-161200-
NORTH CENTRAL TEXAS

CITY           SKY/WX    TMP DP  RH WIND       PRES   REMARKS
SHRMAN/DENISON MOCLDY   N/A N/A N/A S12       29.88R
GAINESVILLE    PTCLDY    78  71  79 SE8       29.88S
BOWIE          LGT RAIN  78  75  90 S9        29.86R
BRIDGEPORT     CLOUDY    80  71  74 S8        29.88R
DECATUR        CLOUDY    80  71  74 S9        29.88R
DENTON         PTCLDY    80  72  76 S9        29.87R
MCKINNEY       CLOUDY    80  73  79 S14       29.88R
BONHAM         MOCLDY    79  72  78 S10G18    29.88S
GREENVILLE     CLOUDY    81  73  78 S10       29.90R
ROCKWALL       CLOUDY    78  73  85 SW12G24   29.90R
TERRELL        MOCLDY    78  73  84 S10       29.90R
WAXAHACHIE     MOCLDY    78  73  86 S10G17    29.91R
CLEBURNE       CLOUDY    79  75  89 S12G17    29.91R
GRANBURY       PTCLDY    81  72  73 S8        29.89R
$$

TXZ083>090-098>101-113>116-127>130-139>142-154-155-161200-
WESTERN NORTH TEXAS

CITY           SKY/WX    TMP DP  RH WIND       PRES   REMARKS
WICHITA FALLS  CLOUDY    79  70  74 S13       29.82R
WF-KICKAPOO    CLOUDY    80  72  76 S10       29.84S
VERNON         MOCLDY    76  71  85 SW3       29.84R
ABILENE        CLOUDY    73  71  93 S12       29.89S
ABILENE-DYESS  CLOUDY    74  71  91 S13       29.87S
GRAHAM         CLOUDY    78  71  78 SE6       29.84S
CISCO          CLOUDY    75  72  88 S8        29.90R
EASTLAND       CLOUDY    76  73  91 S3        29.90R
RANGER         CLOUDY    79  71  76 S12       29.90R
MINERAL WELLS  CLOUDY    80  71  74 S12       29.86R
STEPHENVILLE   MOCLDY    77  70  78 S6        29.93S
COMANCHE       CLOUDY    78  71  80 S10G16    29.91R
BROWNWOOD      CLOUDY    77  72  83 S6        29.91R
COLEMAN        CLOUDY    75  71  87 S10       29.91R
$$

TXZ143>147-156>162-174-175-161200-
CENTRAL TEXAS

CITY           SKY/WX    TMP DP  RH WIND       PRES   REMARKS
WACO           MOCLDY    80  74  81 S13       29.90R
WACO-MCGREGOR  CLOUDY    79  74  84 S10       29.91R
HILLSBORO      CLOUDY    79  74  86 S10       29.90S
CORSICANA      CLOUDY    79  75  87 S9        29.92R
MEXIA          CLEAR     78  74  90 S10G16    29.91R
HEARNE         PTCLDY    77  77 100 SE6       29.93R
CAMERON        PTCLDY    80  76  89 S9G18     29.91R
TEMPLE         PTCLDY    78  75  90 S12       29.92R
KILLEEN        PTCLDY    79  73  83 S12       29.91R
KILLEEN-SKYLRK CLOUDY    79  74  84 S9        29.92R
FORT HOOD      MOCLDY    77  72  84 S10       29.88R
HAMILTON       PTCLDY    78  71  81 S12       29.92S
LAMPASAS       CLOUDY    78  73  85 S6        29.92R
$$

TXZ095>097-106>112-122>126-135>138-148>153-164>167-161200-
EAST TEXAS

CITY           SKY/WX    TMP DP  RH WIND       PRES   REMARKS
PARIS          CLOUDY    78  74  87 S9        29.91R
SULPHUR SPRNGS CLEAR     79  74  85 S10       29.93R
MOUNT PLEASANT CLEAR    N/A N/A N/A S3        29.93R
GILMER         CLOUDY    76  75  96 S6        29.93S
MINEOLA        CLEAR     79  75  89 S9        29.91S
TYLER          PTCLDY    79  77  94 S10       29.93R
LONGVIEW       CLEAR     78  77  96 S7        29.94R
MARSHALL         N/A     75  73  92 CALM      29.97R
ATHENS         PTCLDY    75  75 100 S6        29.91S
PALESTINE      PTCLDY    77  76  97 SE6       29.94S
JACKSONVILLE   CLEAR     76  76 100 S7        29.97R
HENDERSON      PTCLDY    76  75  97 CALM      29.96R
CENTER         CLOUDY    82  80  95 S3        29.98R HX  92
LUFKIN         CLEAR     76  75  97 SE5       29.95R
$$

SUPPLEMENTAL OBSERVATIONS (NWS FORT WORTH AREA)

CITY           SKY/WX    TMP DP  RH WIND       PRES   REMARKS
CADDO GRASSLND   N/A     81  73  78 S9          N/A
PAT MAYSE LAKE   N/A     81  77  89 SE13        N/A
GREENVILLE       N/A     79  72  78 S9          N/A
CEDAR HILL       N/A     79  72  78 S7G16       N/A
LBJ GRASSLAND    N/A     79  70  73 SE7         N/A
POSSUM KINGDOM   N/A     79  72  78 SE6         N/A
GRANBURY         N/A     81  72  74 S10         N/A
MCGREGOR         N/A     79  73  83 S8          N/A
TEMPLE           N/A     79  75  89 S7          N/A
$$

SUPPLEMENTAL OBSERVATIONS (NWS NORMAN AREA)

CITY           SKY/WX    TMP DP  RH WIND       PRES   REMARKS
GOODLETT         N/A     74  69  85 S7        29.85R
ODELL            N/A     75  73  93 S5        29.85R
CROWELL          N/A     74  71  92 S3        29.86R
KNOX CITY        N/A     75  68  77 S6        29.86R
SEYMOUR          N/A     75  68  78 SW3       29.85R
MILLERS CREEK    N/A     75  72  88 S9          N/A
$$

SUPPLEMENTAL OBSERVATIONS (NWS SAN ANGELO AREA)

CITY           SKY/WX    TMP DP  RH WIND       PRES   REMARKS
WEINERT          N/A     73  70  88 S8        29.86R
HASKELL          N/A     75  67  76 S12       29.86S
THROCKMORTON     N/A     76  71  86 S8        29.87R
STAMFORD         N/A     76  70  83 S9        29.88R
CLYDE            N/A     74  71  88 S13       29.92S
HAMBY            N/A     73  68  83 S8          N/A
IVIE RESERVOIR   N/A     75  72  88 SE7         N/A
COLORADO BEND    N/A     77  68  73 S8          N/A
$$

SUPPLEMENTAL OBSERVATIONS (NWS SHREVEPORT AREA)

CITY           SKY/WX    TMP DP  RH WIND       PRES   REMARKS
CLARKSVILLE      N/A     77  72  83 S5          N/A
TEXARKANA        N/A     75  73  94 SE1         N/A
LINDEN           N/A     75  72  88 SE1         N/A
GILMER           N/A     77  75  94 S3          N/A
HENDERSON        N/A     77  73  88 S6          N/A
LUFKIN           N/A     77  75  94 MISG        N/A
N SABINE NF      N/A     77  75  94 MISG        N/A
S SABINE NF      N/A     75  73  94 CALM        N/A
$$

SUPPLEMENTAL OBSERVATIONS ARE A COLLECTION OF AUTOMATED INSTRUMENTS
THAT ARE MAINTAINED BY A VARIETY OF FEDERAL AND STATE AGENCIES.
CERTAIN ELEMENTS...SUCH AS HUMIDITY VALUES AND SUSTAINED WIND
SPEEDS...MAY BE APPROXIMATED.




USA.gov is the U.S. government's official web portal to all federal, state and local government web resources and services.